Weather Roundup
Issued by NWS Springfield, MO

Home | Current Version | Previous Version | Text Only | Print | Product List | Glossary Off
Versions: 1 2 3 4 5 6 7 8 9 10 11 12 13 14 15 16 17 18 19 20 21 22 23 24 25 26 27 28 29 30 31 32 33 34 35 36 37 38 39 40 41 42 43 44 45 46 47 48 49 50

000
NZUS99 KSGF 250607
HRRSGF

HOURLY WEATHER
NATIONAL WEATHER SERVICE SPRINGFIELD MO
100 AM CDT SAT MAR 25 2017

......SGF CWA......

CITY           SKY/WX    TMP DP  RH WIND       PRES   REMARKS
SPRINGFIELD    MOCLDY    55  50  83 S10       29.78F
6HR MIN TEMP:  54; 6HR MAX TEMP:  60; 6HR PCP:  0.80;

JOPLIN         MOCLDY    58  54  86 S8        29.78F
6HR MIN TEMP:  56; 6HR MAX TEMP:  62;

WEST PLAINS    LGT RAIN  54  52  93 W9        29.88F
6HR MIN TEMP:  54; 6HR MAX TEMP:  70; 6HR PCP:  0.76;

ROLLA          CLOUDY    54  53  97 S7        29.86F
6HR MIN TEMP:  53; 6HR MAX TEMP:  70; 6HR PCP:  1.10;

OSAGE BEACH    CLOUDY   N/A N/A N/A E8        29.81F
BRANSON        MOCLDY    52  52 100 SE3       29.83R

......SURROUNDING SGF CWA......

CITY           SKY/WX    TMP DP  RH WIND       PRES   REMARKS
CHANUTE        CLOUDY    53  51  93 N10       29.78F
PARSONS        CLOUDY    54  50  86 VRB6      29.78F
COFFEYVILLE    CLOUDY    54  50  86 N9        29.79F
EMPORIA        LGT RAIN  49  49 100 NW9       29.82S
GROVE OK       CLOUDY    59  57  94 S3        29.78F
ROGERS AR      CLOUDY    55  51  86 E6        29.80S
SILOAM SPRINGS MOCLDY    57  54  88 CALM      29.77F
HARRISON AR    CLOUDY    52  52 100 SE14      29.82R
NEAR YELLVILLE CLOUDY    54  48  82 SE3       29.82F

......KANSAS AND MISSOURI......

CITY           SKY/WX    TMP DP  RH WIND       PRES   REMARKS
KANSAS CTY INT CLOUDY    57  57 100 NE8       29.79F FOG
DOWNTOWN KC    LGT RAIN  59  56  89 E3        29.78F
COLUMBIA       CLOUDY    56  56 100 E6        29.83F
SEDALIA        CLOUDY    58  48  69 SE10      29.81F
ST JOSEPH      LGT RAIN  49  48  97 N15       29.82F
ST LOUIS       LGT RAIN  64  59  83 SE10      29.90F
SPIRIT OF STL  LGT RAIN  59  58  96 W6        29.91R
KIRKSVILLE     CLOUDY    55  54  96 NE8       29.89F
WICHITA        CLOUDY    47  47 100 N18       29.84F
TOPEKA         CLOUDY    50  49  96 N10G18    29.82R
OLATHE         CLOUDY    57  57 100 E8        29.77F

......TENNESSEE......

CITY           SKY/WX    TMP DP  RH WIND       PRES   REMARKS
MEMPHIS        MOCLDY    70  60  70 S16G28    29.97S
NASHVILLE      MOCLDY    62  51  67 SE7       30.12F

......ARKANSAS.......

CITY           SKY/WX    TMP DP  RH WIND       PRES   REMARKS
FAYETTEVILLE   MOCLDY    56  55  97 S7        29.78F
FT SMITH       CLOUDY    56  53  90 NE7       29.78F
LITTLE ROCK    LGT RAIN  59  59 100 SE9       29.89F FOG

......OKLAHOMA.......

CITY           SKY/WX    TMP DP  RH WIND       PRES   REMARKS
TULSA          MOCLDY    61  59  93 NE6       29.72F
PONCA CITY     CLOUDY    57  47  69 NE10      29.81S
MCALESTER      PTCLDY    62  42  47 S9        29.75F
OKLAHOMA CITY  LGT RAIN  53  50  89 NW25G33   29.79R

......IOWA............

CITY           SKY/WX    TMP DP  RH WIND       PRES   REMARKS
DES MOINES     DRIZZLE   44  42  93 NE13      29.96F FOG
QUAD CITIES    CLOUDY    48  44  86 E16       29.98S FOG

......ILLINOIS........

CITY           SKY/WX    TMP DP  RH WIND       PRES   REMARKS
QUINCY         LGT RAIN  57  56  96 NW5       29.91F FOG
CHICAGO        CLOUDY    42  36  79 NE15      30.06R



USA.gov is the U.S. government's official web portal to all federal, state and local government web resources and services.